�������l�o���
Date,Time,MP-1(��Sv/h),MP-2(��Sv/h),MP-3(��Sv/h),MP-4(��Sv/h),MP-5(��Sv/h),MP-6(��Sv/h),MP-7(��Sv/h),MP-8(��Sv/h),����,����(m/s),���J
2023/08/22,00:00,0.546,0.823,0.504,1.006,0.744,0.329,0.581,0.539,��,2.6,��
2023/08/22,00:10,0.545,0.824,0.503,1.007,0.746,0.329,0.581,0.538,��,2.9,��
2023/08/22,00:20,0.546,0.823,0.503,1.008,0.747,0.329,0.580,0.538,��쓌,2.6,��
2023/08/22,00:30,0.546,0.822,0.503,1.007,0.747,0.328,0.582,0.538,��,3.5,��
2023/08/22,00:40,0.547,0.822,0.503,1.009,0.746,0.326,0.581,0.537,��,3.2,��
2023/08/22,00:50,0.548,0.826,0.503,1.006,0.746,0.328,0.581,0.540,��쓌,3.3,��
2023/08/22,01:00,0.548,0.823,0.502,1.006,0.746,0.328,0.581,0.539,��,2.6,��
2023/08/22,01:10,0.549,0.825,0.502,1.009,0.744,0.327,0.581,0.537,��,1.7,��
2023/08/22,01:20,0.549,0.824,0.504,1.007,0.745,0.328,0.580,0.538,��,1.5,��
2023/08/22,01:30,0.546,0.823,0.503,1.008,0.746,0.327,0.580,0.538,��,1.5,��
2023/08/22,01:40,0.546,0.822,0.503,1.006,0.746,0.328,0.581,0.538,��,1.2,��
2023/08/22,01:50,0.547,0.821,0.505,1.007,0.746,0.327,0.582,0.538,��,1.5,��
2023/08/22,02:00,0.548,0.820,0.502,1.010,0.745,0.327,0.581,0.537,��쐼,1.5,��
2023/08/22,02:10,0.546,0.822,0.503,1.008,0.743,0.329,0.583,0.539,��쐼,1.4,��
2023/08/22,02:20,0.547,0.822,0.503,1.007,0.745,0.329,0.582,0.538,��,2.2,��
2023/08/22,02:30,0.548,0.823,0.503,1.007,0.746,0.328,0.581,0.539,��,2.5,��
2023/08/22,02:40,0.547,0.823,0.504,1.009,0.745,0.328,0.580,0.539,��쐼,2.0,��
2023/08/22,02:50,0.546,0.821,0.503,1.008,0.745,0.327,0.580,0.537,��,2.6,��
2023/08/22,03:00,0.547,0.821,0.503,1.008,0.746,0.327,0.580,0.539,��,2.3,��
2023/08/22,03:10,0.547,0.823,0.504,1.008,0.746,0.326,0.581,0.538,��,2.5,��
2023/08/22,03:20,0.545,0.824,0.501,1.007,0.745,0.327,0.581,0.539,��,1.7,��
2023/08/22,03:30,0.547,0.823,0.504,1.009,0.745,0.327,0.580,0.538,��,1.7,��
2023/08/22,03:40,0.546,0.822,0.502,1.007,0.745,0.327,0.581,0.538,��쐼,1.1,��
2023/08/22,03:50,0.546,0.823,0.504,1.008,0.743,0.327,0.581,0.537,��,1.1,��
2023/08/22,04:00,0.546,0.823,0.502,1.008,0.744,0.326,0.580,0.537,��,1.4,��
2023/08/22,04:10,0.546,0.822,0.502,1.008,0.744,0.328,0.579,0.538,��쓌,1.5,��
2023/08/22,04:20,0.549,0.823,0.503,1.009,0.746,0.327,0.581,0.539,��쓌,2.0,��
2023/08/22,04:30,0.547,0.823,0.502,1.009,0.746,0.329,0.583,0.537,��,1.7,��
2023/08/22,04:40,0.547,0.823,0.503,1.009,0.743,0.328,0.581,0.538,��,1.9,��
2023/08/22,04:50,0.545,0.822,0.502,1.009,0.745,0.327,0.582,0.538,��,2.3,��
2023/08/22,05:00,0.548,0.821,0.502,1.007,0.744,0.327,0.581,0.537,��쓌,1.5,��
2023/08/22,05:10,0.546,0.822,0.502,1.009,0.745,0.327,0.582,0.537,��쓌,1.1,��
2023/08/22,05:20,0.546,0.824,0.503,1.010,0.745,0.327,0.582,0.538,��쓌,1.4,��
2023/08/22,05:30,0.544,0.823,0.503,1.010,0.747,0.326,0.580,0.539,��쓌,2.0,��
2023/08/22,05:40,0.546,0.822,0.502,1.009,0.746,0.327,0.581,0.539,��쓌,2.0,��
2023/08/22,05:50,0.547,0.822,0.504,1.007,0.745,0.327,0.580,0.537,��쓌,1.5,��
2023/08/22,06:00,0.548,0.821,0.503,1.008,0.744,0.329,0.580,0.538,��,1.7,��
2023/08/22,06:10,0.546,0.822,0.501,1.011,0.745,0.328,0.579,0.538,��,2.3,��
2023/08/22,06:20,0.546,0.822,0.503,1.005,0.743,0.327,0.580,0.538,��쐼,2.8,�L
2023/08/22,06:30,0.545,0.822,0.503,1.008,0.743,0.326,0.581,0.537,��,2.5,��
2023/08/22,06:40,0.544,0.823,0.502,1.009,0.743,0.327,0.581,0.538,��,2.9,��
2023/08/22,06:50,0.546,0.821,0.503,1.007,0.742,0.327,0.582,0.539,��,2.3,��
2023/08/22,07:00,0.547,0.822,0.502,1.008,0.742,0.326,0.580,0.538,��,2.3,��
2023/08/22,07:10,0.547,0.824,0.504,1.007,0.744,0.328,0.579,0.537,��,2.5,��
2023/08/22,07:20,0.548,0.823,0.505,1.009,0.745,0.327,0.580,0.538,��쓌,3.7,��
2023/08/22,07:30,0.547,0.821,0.504,1.008,0.744,0.327,0.582,0.538,��쓌,4.4,��
2023/08/22,07:40,0.546,0.821,0.502,1.009,0.744,0.326,0.581,0.539,��쓌,4.3,��
2023/08/22,07:50,0.547,0.821,0.502,1.006,0.742,0.327,0.581,0.538,��쓌,4.9,��
2023/08/22,08:00,0.546,0.820,0.503,1.008,0.742,0.328,0.582,0.538,��쓌,4.8,��
2023/08/22,08:10,0.546,0.821,0.503,1.008,0.743,0.327,0.582,0.537,��쓌,4.8,��
2023/08/22,08:20,0.544,0.820,0.501,1.007,0.742,0.328,0.581,0.538,��,4.5,��
2023/08/22,08:30,0.546,0.821,0.503,1.007,0.744,0.327,0.583,0.537,��쓌,5.6,��
2023/08/22,08:40,0.545,0.820,0.502,1.009,0.743,0.326,0.583,0.538,��쓌,6.5,��
2023/08/22,08:50,0.544,0.820,0.502,1.007,0.743,0.326,0.584,0.536,��쓌,5.7,��
2023/08/22,09:00,0.545,0.820,0.500,1.007,0.742,0.324,0.583,0.536,��쓌,6.3,��
2023/08/22,09:10,0.547,0.823,0.502,1.009,0.741,0.325,0.581,0.537,��쓌,5.8,��
2023/08/22,09:20,0.546,0.822,0.501,1.010,0.743,0.326,0.582,0.538,��쓌,6.2,��
2023/08/22,09:30,0.546,0.820,0.502,1.010,0.743,0.327,0.583,0.536,��쓌,5.7,��
2023/08/22,09:40,0.546,0.823,0.503,1.009,0.743,0.324,0.580,0.537,��쓌,7.1,��
2023/08/22,09:50,0.545,0.821,0.504,1.009,0.742,0.326,0.582,0.537,��쓌,6.1,��
2023/08/22,10:00,0.546,0.823,0.503,1.010,0.745,0.325,0.582,0.538,��쓌,3.8,��
2023/08/22,10:10,0.546,0.821,0.506,1.009,0.744,0.325,0.580,0.538,��쓌,7.1,��
2023/08/22,10:20,0.547,0.823,0.507,1.010,0.745,0.326,0.581,0.536,��쓌,7.0,��
2023/08/22,10:30,0.547,0.823,0.505,1.010,0.745,0.326,0.580,0.538,��쓌,6.4,��
2023/08/22,10:40,0.544,0.824,0.503,1.010,0.745,0.325,0.580,0.536,��쓌,6.6,��
2023/08/22,10:50,0.547,0.823,0.503,1.010,0.744,0.324,0.579,0.537,��쓌,5.5,��
2023/08/22,11:00,0.547,0.823,0.505,1.010,0.747,0.324,0.581,0.537,��쓌,7.4,��
2023/08/22,11:10,0.546,0.823,0.507,1.011,0.745,0.325,0.579,0.539,��쓌,7.7,��
2023/08/22,11:20,0.546,0.822,0.506,1.010,0.745,0.327,0.581,0.537,��쓌,8.1,��
2023/08/22,11:30,0.548,0.823,0.508,1.012,0.746,0.326,0.582,0.536,��쓌,6.9,��
2023/08/22,11:40,0.546,0.825,0.506,1.012,0.746,0.326,0.581,0.539,��쓌,7.1,��
2023/08/22,11:50,0.545,0.824,0.508,1.010,0.747,0.325,0.580,0.538,��쓌,7.9,��
2023/08/22,12:00,0.545,0.825,0.507,1.013,0.744,0.324,0.581,0.540,��쓌,8.4,��
2023/08/22,12:10,0.546,0.826,0.507,1.012,0.747,0.327,0.580,0.540,��쓌,8.5,��
2023/08/22,12:20,0.545,0.826,0.506,1.010,0.749,0.326,0.582,0.540,��쓌,7.5,��
2023/08/22,12:30,0.547,0.826,0.505,1.009,0.748,0.327,0.582,0.539,��쓌,6.2,��
2023/08/22,12:40,0.546,0.826,0.506,1.010,0.747,0.327,0.582,0.541,��쓌,8.5,��
2023/08/22,12:50,0.547,0.825,0.508,1.010,0.746,0.326,0.583,0.540,��쓌,7.7,��
2023/08/22,13:00,0.548,0.823,0.506,1.012,0.748,0.325,0.581,0.539,��쓌,6.7,��
2023/08/22,13:10,0.550,0.825,0.506,1.012,0.747,0.327,0.583,0.541,��쓌,7.4,��
2023/08/22,13:20,0.549,0.827,0.508,1.012,0.747,0.325,0.583,0.542,��쓌,5.8,��
2023/08/22,13:30,0.550,0.826,0.506,1.011,0.747,0.326,0.583,0.541,��쓌,2.0,��
2023/08/22,13:40,0.549,0.824,0.505,1.012,0.750,0.328,0.585,0.540,��쓌,4.6,��
2023/08/22,13:50,0.548,0.829,0.506,1.012,0.751,0.328,0.585,0.540,��쓌,4.4,��
2023/08/22,14:00,0.549,0.824,0.506,1.012,0.750,0.328,0.584,0.539,��쓌,6.9,��
2023/08/22,14:10,0.549,0.827,0.507,1.014,0.752,0.327,0.583,0.541,��쓌,2.0,��
2023/08/22,14:20,0.549,0.829,0.507,1.012,0.750,0.329,0.584,0.538,��쓌,7.4,��
2023/08/22,14:30,0.547,0.828,0.506,1.014,0.750,0.327,0.583,0.540,��쓌,8.6,��
2023/08/22,14:40,0.550,0.829,0.507,1.014,0.748,0.327,0.582,0.539,��쓌,5.7,��
2023/08/22,14:50,0.549,0.825,0.507,1.013,0.749,0.327,0.584,0.540,��쓌,6.0,��
2023/08/22,15:00,0.548,0.828,0.507,1.011,0.751,0.327,0.583,0.539,��쓌,6.6,��
2023/08/22,15:10,0.550,0.829,0.506,1.010,0.748,0.327,0.583,0.539,��쓌,8.2,��
2023/08/22,15:20,0.550,0.830,0.506,1.012,0.749,0.328,0.583,0.538,��쓌,8.7,��
2023/08/22,15:30,0.549,0.828,0.507,1.011,0.749,0.327,0.583,0.538,��쓌,8.8,��
2023/08/22,15:40,0.549,0.828,0.507,1.013,0.749,0.327,0.585,0.538,��쓌,8.6,��
2023/08/22,15:50,0.549,0.828,0.506,1.013,0.751,0.327,0.584,0.539,��쓌,8.5,��
2023/08/22,16:00,0.547,0.828,0.506,1.011,0.749,0.325,0.583,0.538,��쓌,7.5,��
2023/08/22,16:10,0.548,0.829,0.506,1.012,0.750,0.325,0.582,0.537,��쓌,8.0,��
2023/08/22,16:20,0.548,0.828,0.507,1.015,0.750,0.326,0.583,0.538,��,8.1,��
2023/08/22,16:30,0.549,0.826,0.506,1.014,0.749,0.326,0.583,0.538,��쓌,8.8,��
2023/08/22,16:40,0.548,0.828,0.507,1.013,0.748,0.325,0.582,0.538,��쓌,10.2,��
2023/08/22,16:50,0.548,0.828,0.507,1.016,0.748,0.326,0.583,0.538,��쓌,9.5,��
2023/08/22,17:00,0.548,0.828,0.506,1.016,0.749,0.326,0.581,0.537,��쓌,9.0,��
2023/08/22,17:10,0.547,0.827,0.507,1.017,0.749,0.327,0.582,0.538,��쓌,9.1,��
2023/08/22,17:20,0.547,0.827,0.506,1.015,0.748,0.327,0.582,0.537,��쓌,9.1,��
2023/08/22,17:30,0.548,0.827,0.508,1.013,0.748,0.327,0.581,0.537,��,7.8,��
2023/08/22,17:40,0.549,0.827,0.507,1.013,0.747,0.327,0.582,0.539,��쓌,9.5,��
2023/08/22,17:50,0.548,0.826,0.505,1.014,0.749,0.326,0.580,0.538,��,7.9,��
2023/08/22,18:00,0.548,0.824,0.506,1.014,0.748,0.327,0.581,0.537,��,9.1,��
2023/08/22,18:10,0.546,0.825,0.504,1.013,0.749,0.328,0.582,0.538,��,8.0,��
2023/08/22,18:20,0.546,0.827,0.507,1.014,0.748,0.326,0.581,0.538,��쓌,9.9,��
2023/08/22,18:30,0.546,0.825,0.505,1.016,0.748,0.326,0.581,0.537,��쓌,10.5,��
2023/08/22,18:40,0.547,0.825,0.505,1.016,0.747,0.325,0.582,0.537,��쓌,10.8,��
2023/08/22,18:50,0.548,0.824,0.504,1.016,0.748,0.326,0.582,0.538,��,9.6,��
2023/08/22,19:00,0.547,0.825,0.504,1.012,0.748,0.326,0.582,0.536,��,9.4,��
2023/08/22,19:10,0.547,0.823,0.505,1.011,0.747,0.327,0.581,0.537,��,8.3,��
2023/08/22,19:20,0.547,0.828,0.505,1.013,0.747,0.328,0.583,0.538,��,8.4,��
2023/08/22,19:30,0.549,0.827,0.506,1.015,0.749,0.327,0.583,0.539,��,8.5,��
2023/08/22,19:40,0.547,0.829,0.506,1.016,0.749,0.327,0.583,0.541,��,7.5,��
2023/08/22,19:50,0.548,0.826,0.506,1.012,0.748,0.325,0.583,0.540,��,7.0,��
2023/08/22,20:00,0.547,0.827,0.506,1.013,0.748,0.327,0.582,0.539,��,7.2,��
2023/08/22,20:10,0.549,0.827,0.505,1.015,0.747,0.327,0.583,0.539,��,6.8,��
2023/08/22,20:20,0.547,0.827,0.507,1.012,0.748,0.328,0.583,0.539,��,7.2,��
2023/08/22,20:30,0.548,0.828,0.507,1.014,0.748,0.327,0.583,0.540,��,7.1,��
2023/08/22,20:40,0.548,0.828,0.506,1.012,0.749,0.328,0.583,0.540,��,6.2,��
2023/08/22,20:50,0.550,0.827,0.507,1.012,0.748,0.327,0.582,0.539,��,5.6,��
2023/08/22,21:00,0.549,0.828,0.508,1.014,0.748,0.327,0.582,0.540,��,5.7,��
2023/08/22,21:10,0.549,0.828,0.507,1.013,0.750,0.327,0.584,0.539,��,5.0,��
2023/08/22,21:20,0.549,0.827,0.507,1.013,0.748,0.326,0.581,0.538,��,7.0,��
2023/08/22,21:30,0.548,0.826,0.507,1.013,0.749,0.329,0.582,0.539,��,8.1,��
2023/08/22,21:40,0.548,0.826,0.506,1.014,0.748,0.328,0.581,0.540,��,7.9,��
2023/08/22,21:50,0.549,0.828,0.508,1.014,0.749,0.328,0.585,0.538,��,7.7,��
2023/08/22,22:00,0.548,0.828,0.506,1.015,0.749,0.328,0.582,0.538,��,7.2,��
2023/08/22,22:10,0.548,0.825,0.507,1.012,0.750,0.327,0.580,0.539,��,7.2,��
2023/08/22,22:20,0.548,0.826,0.505,1.015,0.749,0.326,0.582,0.540,��,6.9,��
2023/08/22,22:30,0.548,0.829,0.507,1.014,0.747,0.327,0.582,0.537,��,6.6,��
2023/08/22,22:40,0.549,0.827,0.505,1.014,0.749,0.329,0.583,0.538,��,6.0,��
2023/08/22,22:50,0.548,0.829,0.507,1.015,0.748,0.326,0.583,0.538,��,7.2,��
2023/08/22,23:00,0.547,0.828,0.506,1.014,0.748,0.329,0.585,0.540,��쓌,7.8,��
2023/08/22,23:10,0.549,0.827,0.506,1.015,0.750,0.327,0.583,0.538,��,6.7,��
2023/08/22,23:20,0.549,0.827,0.508,1.014,0.749,0.327,0.583,0.539,��,7.8,��
2023/08/22,23:30,0.550,0.828,0.508,1.015,0.751,0.328,0.582,0.540,��,8.4,�L
2023/08/22,23:40,0.550,0.824,0.505,1.015,0.748,0.326,0.581,0.537,��,9.2,�L
2023/08/22,23:50,0.547,0.826,0.504,1.013,0.745,0.327,0.581,0.538,��쓌,9.1,�L
